Current Weather Conditions: station ENDR

sailwx.info

See reports from other nearby stations

no recent reports received from weather station ID ENDR

Tides Pressure Air temp Water temp Dewpoint Dewpoint depression Visibility Wind speed Wind direction Waves Ship positions
date/time (UTC)wind fromknots sea level pressurealtimeterstation pressurevisibilityair tempwater tempwave heightnotes
2017-Jun-24 00:50 200 17 11.0
2017-Jun-24 00:20 170 15 11.0
2017-Jun-23 23:50 140 11 11.0
2017-Jun-23 23:20 110 7 11.0
2017-Jun-23 22:50 080 7 12.0
2017-Jun-23 22:20 070 8 12.0
2017-Jun-23 21:50 070 6 12.0
2017-Jun-23 21:20 040 2 12.0
2017-Jun-23 20:50 11.0
2017-Jun-23 20:20 270 4 11.0
2017-Jun-23 19:50 310 2 11.0
2017-Jun-23 19:20 290 6 12.0
2017-Jun-23 18:50 280 5 11.0
2017-Jun-23 18:20 270 6 11.0
2017-Jun-23 17:50 170 1 11.0
2017-Jun-23 17:20 130 0 11.0
2017-Jun-23 16:50 120 1 12.0
2017-Jun-23 16:20 070 2 12.0
2017-Jun-23 15:50 020 1 12.0
2017-Jun-23 15:10 030 6 5.412.0 Light drizzle.
2017-Jun-23 14:50 010 4 13.0
2017-Jun-23 14:20 360 1 12.0
2017-Jun-23 13:50 350 0 12.0
2017-Jun-23 13:20 360 2 12.0
2017-Jun-23 12:50 12.0
2017-Jun-23 12:10 5.413.0
2017-Jun-23 11:50 120 0 13.0
2017-Jun-23 11:20 050 0 13.0
2017-Jun-23 10:50 120 2 12.0
2017-Jun-23 10:20 100 5 12.0
2017-Jun-23 09:50 050 6 15.0
2017-Jun-23 08:50 020 0 13.0
2017-Jun-23 08:20 060 0 13.0
2017-Jun-23 07:50 250 1 12.0
2017-Jun-23 07:20 220 2 11.0
2017-Jun-23 06:50 150 2 11.0
2017-Jun-23 06:10 130 7 5.411.0
2017-Jun-23 05:50 100 7 12.0
2017-Jun-23 05:20 090 7 12.0
2017-Jun-23 04:50 080 8 12.0
2017-Jun-23 04:20 060 9 12.0
2017-Jun-23 03:50 070 9 12.0
2017-Jun-23 03:20 070 11 12.0
2017-Jun-23 02:50 070 12 11.0
2017-Jun-23 02:20 070 12 11.0
2017-Jun-23 01:50 070 13 11.0
2017-Jun-23 01:20 070 14 11.0
2017-Jun-23 00:50 060 14 11.0
2017-Jun-23 00:20 060 15 11.0
2017-Jun-22 23:50 060 13 11.0
2017-Jun-22 23:20 060 14 11.0
2017-Jun-22 22:50 060 14 11.0
2017-Jun-22 22:20 060 15 11.0
2017-Jun-22 21:50 060 15 11.0
2017-Jun-22 21:20 060 15 11.0
2017-Jun-22 20:50 060 17 11.0
2017-Jun-22 20:20 060 17 11.0
2017-Jun-22 19:50 060 15 11.0
2017-Jun-22 19:20 060 14 11.0
2017-Jun-22 18:50 070 19 11.0
2017-Jun-22 18:20 060 18 11.0
2017-Jun-22 17:50 060 19 11.0
2017-Jun-22 17:20 060 17 12.0
2017-Jun-22 16:50 060 15 12.0
2017-Jun-22 16:20 060 18 12.0
2017-Jun-22 15:50 060 17 11.0
2017-Jun-22 15:20 060 17 12.0
2017-Jun-22 14:50 060 15 12.0
2017-Jun-22 14:20 060 14 12.0
2017-Jun-22 13:50 060 13 13.0
2017-Jun-22 13:20 060 12 13.0
2017-Jun-22 12:50 060 12 12.0
2017-Jun-22 12:10 070 13 5.413.0
2017-Jun-22 11:50 070 13 12.0
2017-Jun-22 11:20 070 13 12.0
2017-Jun-22 10:50 070 13 13.0
2017-Jun-22 10:20 070 13 13.0
2017-Jun-22 09:50 080 13 13.0
2017-Jun-22 09:10 080 13 5.413.0
2017-Jun-22 08:50 080 12 13.0
2017-Jun-22 08:20 080 12 13.0
2017-Jun-22 07:50 080 12 13.0
2017-Jun-22 07:20 070 12 13.0
2017-Jun-22 06:50 070 11 13.0
2017-Jun-22 06:10 070 6 5.412.0
2017-Jun-22 05:50 070 4 11.0
2017-Jun-22 05:20 040 0 11.0
2017-Jun-22 04:50 020 0 12.0
2017-Jun-22 04:20 030 1 11.0
2017-Jun-22 03:50 350 2 10.0
2017-Jun-22 03:20 360 2 10.0
2017-Jun-22 02:50 350 1 10.0
2017-Jun-22 02:20 330 1 9.0
2017-Jun-22 01:50 290 4 9.0
2017-Jun-22 01:20 300 5 9.0